Home > Weather > Sidon > Past weeks

Flag for Lebanon Weather for the Past 2 Weeks in Sidon, Lebanon

Now
66 °F

Passing clouds.


Feels Like: 66 °F
Forecast: 68 / 74 °F
Wind: 6 mph from South

Location: Beirut Airport

Current Time: May 5, 2016 at 4:28:09 AM

Latest Report: May 5, 2016 at 4:00 AM


Visibility: 5 mi

Pressure: 29.92 "Hg

Humidity: 78%

Dew Point: 59 °F

Location of SidonLocation

Historic Weather in Sidon — Graph

°F

Sidon Temperature Yesterday

Maximum temperature yesterday: 81 °F (at 12:00 AM)
Minimum temperature yesterday: 68 °F (at 9:00 PM)
Average temperature yesterday: 72 °F

High & Low Weather Summary for the Past Weeks

 TemperatureHumidityPressure
High91 °F (Apr 20, 3:00 PM)88% (Apr 24, 12:00 AM)30.07 "Hg (Apr 24, 12:00 AM)
Low63 °F (Apr 24, 7:00 AM)12% (Apr 20, 5:00 PM)29.62 "Hg (Apr 25, 2:00 AM)
Average72 °F62%29.91 "Hg
* Reported Apr 20 3:00 AM — May 5 3:00 AM, Sidon, Weather by CustomWeather, © 2016

Note: Actual official high and low records may vary slightly from our data, if they occured in-between our weather recording intervals... More about our weather records

Advertising

Sidon Weather History for the Previous 24 Hours

Scroll right to see more
 ConditionsComfort  
Time TempWeatherWind HumidityBarometerVisibility
3:00 AM
Thu, May 5
66 °FMild.7 mph78%29.92 "HgN/A
2:00 AM64 °FRain. Passing clouds.6 mph88%29.95 "Hg3 mi
1:00 AM66 °FRain. Passing clouds.6 mph83%29.98 "Hg3 mi
12:00 AM68 °FPassing clouds.9 mph73%29.98 "Hg5 mi
11:00 PM
Wed, May 4
70 °FPassing clouds.10 mph69%29.98 "Hg5 mi
10:00 PM68 °FPassing clouds.9 mph73%29.98 "Hg5 mi
9:00 PM68 °FPassing clouds.15 mph73%29.98 "Hg5 mi
8:00 PM70 °FRain. Scattered clouds.14 mph64%29.98 "Hg5 mi
7:00 PM70 °FScattered clouds.12 mph60%29.98 "Hg5 mi
6:00 PM72 °FScattered clouds.13 mph61%29.98 "Hg5 mi
5:00 PM72 °FScattered clouds.14 mph61%29.98 "Hg5 mi
4:00 PM73 °FScattered clouds.15 mph53%29.98 "Hg5 mi
3:00 PM73 °FScattered clouds.16 mph50%29.98 "Hg5 mi
2:00 PM73 °FPartly sunny.16 mph57%29.98 "Hg5 mi
1:00 PM73 °FPartly sunny.17 mph53%29.98 "Hg5 mi
12:00 PM70 °FScattered clouds.16 mph60%29.98 "Hg5 mi
11:00 AM70 °FScattered clouds.15 mph60%29.98 "Hg5 mi
10:00 AM70 °FScattered clouds.13 mph69%29.95 "Hg5 mi
9:00 AM70 °FBroken clouds.10 mph73%29.92 "Hg5 mi
8:00 AM70 °FBroken clouds.8 mph78%29.89 "Hg5 mi
7:00 AM70 °FPartly sunny.6 mph78%29.89 "Hg5 mi
6:00 AM70 °FPassing clouds.8 mph73%29.89 "Hg5 mi
5:00 AM72 °FPassing clouds.9 mph61%29.86 "Hg5 mi
4:00 AM75 °FPassing clouds.2 mph54%29.83 "Hg5 mi
Weather by CustomWeather, © 2016

See weather overviewHow to use our weather pages